Temperature
9 9 10 10 10 10 10 10 10 10 10 10 10 10 10 10 10 10 10 9 9 10 10 10 9 9 9 9 9 9 8 7 6 6 5 5 5 4 4 4 4 3 3
9 9 9 9 9 9 9 9 9 9 9 9 9 9 9 9 9 9 9 9 9 9 9 9 9 9 9 9 9 8 7 6 6 5 5 4 4 4 3 3 3 3 3
8 9 9 9 9 9 9 9 9 9 9 9 9 9 9 9 8 9 9 9 9 9 8 8 9 8 8 8 8 7 6 6 5 4 4 4 3 3 3 2 2 2 2
8 8 8 8 8 8 8 8 8 8 8 8 8 8 8 8 8 8 8 8 8 8 8 8 8 8 8 7 7 6 5 5 4 3 3 3 3 2 2 2 2 2 2
7 7 7 7 7 7 7 7 7 7 7 7 7 7 7 7 7 7 7 7 7 7 7 7 7 7 7 6 6 5 4 4 3 3 2 2 2 2 2 2 2 2 1
6 6 6 6 6 6 6 6 6 7 7 7 6 6 7 7 7 7 7 7 7 7 7 7 7 6 6 5 5 4 4 3 3 2 2 1 1 1 1 1 1 1 1
5 5 5 5 5 5 5 5 5 5 6 6 6 6 6 6 6 6 6 6 6 6 6 6 6 6 5 5 4 3 3 2 2 2 1 1 1 1 1 1 1 1 1
3 3 4 4 4 4 4 4 4 4 4 5 5 5 5 5 5 5 5 5 5 5 5 5 5 5 5 4 3 3 2 2 2 1 1 1 1 1 1 1 1 0 0
3 3 3 3 3 3 3 3 3 3 3 3 4 4 4 4 4 4 4 4 4 4 4 4 4 4 4 3 2 2 2 2 1 1 1 1 1 1 0 0 0 -0 -0
2 2 2 2 2 2 2 2 2 2 2 2 2 3 3 3 3 3 3 3 3 3 4 4 3 3 3 2 2 2 1 1 1 1 0 0 0 0 0 0 -0 -0 -0
1 1 1 1 1 1 1 1 1 1 1 1 1 2 2 2 2 2 2 2 3 3 3 3 3 2 2 2 1 1 1 0 0 -0 0 0 0 0 0 -0 -0 -1 -1
-0 -0 -0 -0 -0 -0 -0 -0 -0 -0 -0 0 0 0 1 1 1 1 1 2 2 2 2 2 2 2 1 1 1 0 0 -0 -0 -0 -0 -0 0 -0 -0 -0 -1 -1 -1
-1 -1 -1 -1 -1 -1 -1 -1 -1 -1 -1 -1 -1 -1 -0 -0 0 0 1 1 1 1 1 1 1 1 1 0 0 -0 -1 -1 -1 -1 -0 -0 -1 -1 -1 -1 -1 -1 -1
-2 -2 -2 -2 -2 -2 -2 -2 -2 -2 -2 -2 -2 -2 -2 -1 -1 -0 -0 -0 0 0 0 0 0 0 -0 -0 -0 -1 -1 -1 -1 -1 -1 -1 -2 -2 -2 -2 -2 -1 -1
-3 -3 -3 -3 -3 -3 -3 -3 -3 -3 -3 -3 -3 -3 -3 -2 -1 -1 -1 -1 -1 -0 -0 -0 -0 -0 -0 -1 -1 -1 -1 -2 -2 -1 -2 -2 -2 -2 -2 -2 -2 -2 -1
-3 -3 -4 -4 -4 -4 -4 -4 -3 -4 -4 -4 -3 -3 -3 -3 -3 -2 -2 -1 -1 -1 -1 -1 -1 -1 -1 -1 -1 -1 -1 -1 -1 -2 -2 -2 -2 -2 -2 -2 -2 -2 -2
-4 -4 -4 -4 -5 -5 -5 -5 -5 -4 -4 -4 -4 -4 -4 -3 -3 -3 -3 -2 -2 -2 -1 -1 -1 -1 -1 -1 -1 -1 -1 -1 -1 -2 -2 -2 -2 -2 -2 -2 -2 -2 -2
-5 -5 -5 -5 -5 -5 -6 -6 -6 -6 -5 -4 -4 -4 -4 -4 -4 -3 -3 -3 -3 -2 -2 -1 -1 -1 -1 -1 -1 -1 -1 -2 -2 -2 -2 -2 -2 -2 -2 -2 -2 -2 -2
-5 -6 -6 -6 -6 -6 -6 -6 -6 -6 -6 -6 -5 -5 -4 -4 -4 -4 -4 -4 -3 -3 -2 -2 -1 -1 -1 -1 -1 -1 -2 -2 -2 -2 -2 -2 -2 -2 -2 -2 -2 -2 -2
-6 -6 -6 -6 -6 -6 -7 -7 -7 -7 -7 -6 -6 -6 -5 -5 -5 -4 -4 -4 -3 -3 -3 -2 -2 -2 -2 -2 -2 -2 -2 -2 -2 -2 -2 -2 -2 -2 -2 -2 -2 -2 -2
-7 -7 -7 -7 -7 -7 -7 -7 -7 -7 -7 -7 -6 -6 -6 -6 -5 -5 -5 -4 -4 -3 -3 -3 -3 -2 -2 -2 -2 -2 -2 -2 -2 -2 -2 -2 -2 -2 -2 -2 -2 -3 -3
-8 -8 -8 -8 -8 -8 -8 -7 -7 -7 -7 -7 -7 -6 -6 -6 -6 -5 -5 -5 -4 -4 -3 -3 -3 -3 -2 -2 -2 -2 -2 -2 -2 -2 -2 -2 -2 -2 -2 -3 -3 -3 -3
-8 -8 -8 -8 -8 -8 -8 -8 -8 -7 -7 -7 -7 -7 -6 -6 -6 -5 -5 -5 -4 -4 -4 -4 -3 -3 -3 -3 -2 -2 -2 -2 -2 -2 -2 -2 -2 -2 -2 -3 -3 -3 -3
-9 -9 -9 -9 -9 -8 -8 -8 -8 -8 -8 -7 -7 -7 -7 -6 -6 -6 -5 -5 -5 -4 -4 -4 -4 -3 -3 -3 -3 -2 -2 -2 -2 -2 -2 -3 -3 -3 -3 -3 -3 -3 -3
-9 -9 -9 -9 -9 -9 -9 -8 -8 -8 -8 -8 -7 -7 -7 -7 -6 -6 -6 -5 -5 -5 -4 -4 -4 -4 -3 -3 -3 -3 -2 -2 -2 -3 -3 -3 -3 -3 -3 -3 -3 -3 -4
-10 -10 -10 -10 -10 -9 -9 -9 -9 -9 -8 -8 -8 -7 -7 -7 -7 -6 -6 -6 -5 -5 -5 -4 -4 -4 -3 -3 -3 -3 -3 -3 -3 -3 -3 -3 -3 -3 -3 -3 -4 -4 -4
Wind_Speed
8 7 7 6 5 4 2 1 0 0 1 3 4 5 5 6 6 6 6 7 7 6 6 6 6 5 4 4 3 2 2 3 3 1 2 3 3 5 5 5 4 5 5
8 7 6 6 6 5 4 3 1 0 1 2 3 4 5 5 5 6 7 7 7 7 7 7 7 5 6 5 4 4 3 3 3 3 2 2 3 4 4 4 3 4 5
8 8 8 7 7 6 5 4 3 1 1 1 2 3 4 5 6 6 6 7 7 7 7 7 7 7 6 5 5 4 3 3 2 3 2 2 2 3 3 2 2 2 3
8 8 8 7 7 6 5 5 4 3 2 2 2 3 4 4 5 6 6 6 6 6 6 6 7 8 7 7 6 5 4 4 3 3 3 3 2 3 3 3 3 2 2
8 8 7 7 7 6 5 5 4 3 3 2 2 2 3 4 5 6 6 6 6 6 5 5 5 6 8 7 6 6 6 5 4 4 3 3 4 3 4 4 4 3 2
7 7 7 7 7 6 6 5 5 4 3 3 3 4 4 4 6 8 6 5 6 7 6 5 5 6 7 8 8 8 8 7 6 5 4 4 5 5 4 4 4 3 3
7 7 7 7 7 7 7 6 6 5 4 4 4 4 5 6 8 9 9 6 6 6 7 7 6 6 8 6 7 8 6 6 6 5 5 5 5 6 7 5 5 4 3
6 7 7 7 7 7 7 7 7 6 5 5 5 5 5 6 9 10 10 7 5 6 7 8 8 7 8 9 7 6 5 4 4 3 3 3 3 5 7 7 6 5 4
7 7 7 8 8 8 7 7 7 6 7 6 6 6 6 6 9 11 10 5 6 7 7 8 9 9 13 15 10 8 6 5 4 5 5 5 6 8 8 6 6 4 3
7 8 8 8 8 8 8 7 7 6 7 7 7 7 7 7 10 12 12 6 7 7 7 9 13 13 16 17 11 10 9 7 6 5 4 5 4 5 7 6 7 5 3
7 7 8 8 8 8 8 7 7 7 7 7 8 7 7 9 11 14 15 9 8 8 8 8 9 17 18 18 14 9 11 9 7 7 5 4 4 3 3 4 4 4 4
7 8 8 8 8 8 8 8 7 7 8 8 8 8 7 7 10 13 17 16 13 9 9 8 10 17 18 18 14 13 15 12 6 6 5 5 4 4 3 5 7 7 5
7 8 8 9 8 8 8 8 7 6 7 7 7 8 7 6 8 14 16 17 17 11 8 13 15 18 18 15 16 16 13 7 6 6 6 5 4 5 5 5 5 8 8
8 8 8 8 8 8 7 7 7 6 7 8 8 8 8 6 6 6 7 9 12 11 8 12 18 19 14 13 13 11 8 8 7 6 6 5 5 6 5 4 4 4 3
8 8 8 8 8 8 8 7 8 7 9 10 8 8 9 9 10 12 10 8 8 8 7 6 6 7 10 8 8 8 8 8 8 6 6 6 6 6 5 5 4 4 4
8 8 7 7 7 7 8 9 11 12 16 17 17 16 13 15 17 17 17 16 16 14 9 8 9 10 11 11 11 10 9 9 8 7 7 8 8 8 6 5 4 5 5
8 9 8 8 8 8 8 8 10 11 14 16 17 18 17 18 18 17 16 16 16 16 10 9 10 10 11 11 11 11 11 10 9 8 8 8 8 8 7 6 6 5 5
9 10 10 8 8 8 8 8 8 10 11 9 12 16 18 17 16 15 15 12 10 10 8 9 9 10 10 11 11 10 10 9 9 10 9 9 9 8 8 8 8 7 6
9 8 8 8 8 9 9 9 9 10 10 10 9 10 14 15 15 14 12 7 7 7 7 8 8 9 9 10 10 10 11 10 10 10 10 10 10 9 8 8 8 11 8
9 13 12 9 9 9 9 9 9 9 10 9 9 8 7 9 7 7 7 6 7 6 6 6 7 8 9 10 10 11 11 11 11 11 10 10 10 10 10 10 10 9 8
9 10 14 11 9 9 9 9 9 9 9 10 9 10 14 9 8 8 7 6 6 6 6 6 6 7 8 9 10 11 12 11 11 11 11 11 11 10 10 9 9 9 8
9 9 9 10 10 9 10 9 9 10 10 11 9 9 14 9 7 7 7 6 5 5 5 6 6 7 8 9 10 11 12 12 12 12 11 11 11 11 10 10 9 9 9
9 10 11 10 10 13 12 9 9 9 9 9 9 8 8 7 7 7 6 6 5 5 5 5 6 6 7 8 9 10 12 12 12 12 13 12 11 11 10 10 11 11 10
10 10 11 11 10 10 9 9 9 9 9 9 8 8 7 7 6 6 6 5 4 4 4 5 5 7 8 8 8 9 10 11 12 12 14 13 13 11 11 10 11 11 11
10 10 11 10 10 10 10 9 9 8 8 9 8 8 7 6 6 5 5 4 5 5 5 4 4 5 8 9 9 9 13 17 16 14 13 12 12 12 12 11 11 10 9
10 10 10 9 9 9 9 9 9 9 8 8 8 7 6 6 5 5 4 4 4 4 4 4 4 5 6 7 9 12 15 18 19 19 14 10 11 11 11 10 11 11 10
Wind_Direction
28 27 28 22 15 12 15 7 321 253 207 198 195 190 186 186 179 175 179 174 175 175 172 172 178 171 165 166 160 176 187 180 206 164 102 118 136 148 146 147 148 136 127
19 24 27 21 14 12 10 5 4 231 217 207 199 190 189 187 183 184 184 180 183 181 179 175 180 173 173 169 171 186 190 190 189 191 160 146 149 160 152 149 147 135 130
12 17 19 17 15 10 4 357 349 331 260 218 201 198 195 190 189 192 188 187 188 185 182 181 179 174 183 177 176 180 181 178 172 173 168 146 136 144 139 143 152 137 143
10 14 14 7 4 1 355 351 344 335 308 266 229 210 202 196 194 193 194 191 187 183 179 179 179 181 184 179 180 177 173 174 180 181 177 163 159 153 156 170 183 183 184
7 8 4 356 354 354 350 342 335 325 303 275 252 230 216 208 203 195 193 190 182 177 176 175 172 171 174 173 175 176 176 182 187 191 191 179 177 170 190 179 180 159 180
1 359 353 351 349 346 340 333 325 314 296 274 251 232 226 226 214 205 197 191 186 182 180 171 160 156 167 174 177 180 181 185 192 193 197 202 198 192 170 169 154 153 211
351 350 350 349 344 338 333 328 319 307 295 277 261 246 238 228 216 212 206 195 192 189 181 173 173 180 180 172 181 182 183 190 193 185 196 204 195 186 168 166 169 170 188
346 346 345 341 334 328 324 320 315 309 297 285 273 260 252 238 222 216 209 202 197 193 186 182 181 180 183 175 173 173 178 183 187 181 183 195 183 170 169 169 162 129 95
340 338 334 330 324 321 315 309 305 300 294 287 279 266 256 247 230 223 212 199 205 204 196 191 189 189 194 188 178 175 176 178 169 155 148 147 145 154 153 135 137 137 160
324 322 319 315 311 307 303 298 293 287 282 281 275 265 255 250 238 228 216 211 211 210 205 201 201 199 199 194 183 179 186 185 164 156 149 147 140 150 154 153 159 158 155
307 307 306 304 300 296 294 292 291 286 282 276 272 265 254 248 244 236 225 218 215 212 208 203 205 206 204 201 193 189 195 178 167 165 165 162 150 137 121 121 138 155 155
304 301 299 297 297 297 293 293 290 287 285 281 277 273 262 251 245 240 233 229 223 217 214 205 203 204 204 202 199 195 192 177 159 163 167 171 166 158 138 117 111 108 116
301 298 297 297 295 293 290 290 289 284 282 282 277 275 271 258 250 247 242 237 232 227 217 206 201 202 202 202 200 195 186 171 164 175 183 182 171 155 135 117 104 102 91
294 294 294 296 296 294 292 287 284 283 283 283 280 277 276 267 256 247 243 242 236 232 223 212 206 203 196 193 193 192 181 177 176 182 178 165 149 146 150 149 149 146 127
291 291 292 291 291 292 290 284 283 274 278 286 284 281 280 275 263 256 251 245 238 230 209 198 195 188 192 188 184 181 178 181 190 176 174 168 166 166 169 165 156 157 161
292 293 293 292 290 289 290 291 284 283 289 290 287 284 280 276 279 270 260 254 246 233 218 207 204 200 197 193 190 188 188 191 190 184 179 176 175 177 174 169 165 167 174
284 288 290 290 289 289 288 289 294 295 288 288 289 290 287 284 280 273 265 258 249 235 228 216 208 203 199 195 192 190 191 190 186 186 185 180 176 176 176 178 178 177 182
284 285 286 283 283 285 285 284 285 290 296 293 291 291 293 291 285 278 269 262 250 236 227 217 209 203 198 196 194 191 188 184 186 189 187 184 181 180 182 185 186 186 186
290 285 282 281 281 282 284 284 282 282 284 288 291 291 293 295 288 277 269 253 248 243 234 222 210 203 199 196 194 192 190 189 188 189 190 187 186 185 190 190 189 196 192
290 288 290 286 284 282 281 281 280 280 282 283 284 286 292 292 286 278 264 253 248 244 236 229 215 205 199 195 192 191 191 192 190 191 192 191 190 191 194 191 191 193 197
294 295 296 293 284 282 282 281 281 281 281 281 281 284 291 289 282 277 269 259 252 244 234 228 219 208 202 195 192 192 192 193 192 192 192 192 191 194 195 193 193 193 190
298 296 295 292 290 287 284 280 280 280 281 281 283 285 290 287 280 277 270 262 254 248 235 224 220 213 204 198 194 194 195 195 193 191 192 192 192 193 191 192 192 191 190
301 298 296 294 293 291 290 284 281 281 282 282 283 282 282 278 277 278 276 269 259 253 241 226 219 214 209 203 197 195 196 198 194 189 189 190 191 191 191 193 192 189 192
303 299 297 296 295 292 290 289 287 285 286 287 286 282 279 277 277 279 279 277 273 264 251 236 225 216 207 204 201 198 198 193 187 189 187 188 189 190 191 192 193 194 193
306 303 301 300 299 298 296 294 293 292 292 293 292 291 288 283 283 282 278 278 279 273 264 253 236 219 209 204 201 198 195 190 185 183 185 187 188 189 189 189 190 187 188
309 308 306 305 303 303 302 301 300 299 298 297 296 294 293 291 287 285 284 281 281 281 273 262 241 224 216 210 203 196 194 194 191 185 182 184 186 187 185 187 185 186 183
Height
1463 1463 1463 1464 1465 1466 1467 1468 1469 1470 1471 1471 1473 1473 1474 1475 1476 1478 1480 1482 1484 1486 1488 1490 1492 1494 1495 1496 1497 1498 1499 1500 1500 1501 1501 1501 1502 1503 1503 1503 1503 1503 1503
1464 1464 1464 1464 1465 1465 1465 1466 1466 1467 1468 1468 1469 1469 1470 1471 1472 1474 1475 1477 1479 1480 1482 1484 1487 1488 1489 1490 1491 1492 1493 1494 1495 1495 1496 1496 1497 1498 1499 1499 1499 1499 1500
1464 1464 1464 1464 1464 1464 1464 1464 1464 1464 1464 1465 1465 1465 1466 1467 1469 1470 1471 1473 1474 1476 1477 1479 1481 1483 1484 1484 1485 1486 1487 1488 1488 1490 1490 1491 1492 1493 1494 1495 1495 1496 1496
1465 1464 1463 1463 1462 1462 1462 1462 1462 1461 1461 1461 1461 1462 1463 1464 1465 1466 1467 1468 1470 1471 1473 1474 1475 1477 1478 1479 1479 1480 1481 1482 1483 1484 1485 1486 1487 1488 1489 1490 1491 1492 1492
1465 1464 1463 1462 1461 1460 1459 1459 1459 1458 1458 1458 1458 1458 1459 1460 1461 1461 1463 1464 1465 1466 1468 1469 1470 1471 1472 1473 1474 1474 1475 1476 1477 1478 1479 1480 1481 1482 1483 1485 1486 1487 1488
1465 1463 1462 1460 1459 1457 1456 1456 1455 1455 1454 1454 1454 1454 1454 1455 1456 1457 1458 1458 1459 1461 1462 1463 1464 1465 1466 1467 1468 1469 1470 1471 1471 1472 1473 1475 1476 1477 1479 1480 1481 1482 1484
1463 1461 1460 1458 1457 1455 1453 1452 1451 1451 1450 1449 1449 1449 1449 1450 1451 1451 1452 1453 1454 1455 1456 1457 1458 1459 1460 1461 1462 1463 1464 1465 1466 1468 1468 1469 1471 1472 1474 1475 1476 1478 1480
1461 1459 1457 1455 1453 1452 1450 1448 1447 1446 1445 1445 1444 1444 1444 1444 1445 1446 1446 1447 1447 1448 1449 1450 1451 1452 1454 1455 1456 1457 1458 1460 1461 1461 1463 1464 1466 1467 1469 1471 1472 1474 1475
1458 1456 1454 1452 1450 1448 1446 1444 1443 1441 1440 1439 1439 1438 1438 1438 1439 1439 1440 1440 1440 1441 1442 1444 1445 1446 1447 1449 1450 1451 1452 1454 1455 1456 1457 1459 1460 1462 1464 1465 1467 1469 1471
1455 1453 1451 1449 1446 1444 1442 1440 1438 1436 1435 1434 1433 1432 1431 1431 1432 1432 1433 1433 1433 1434 1435 1436 1438 1439 1441 1441 1443 1445 1447 1448 1450 1451 1452 1454 1456 1457 1459 1460 1462 1465 1467
1453 1450 1448 1445 1442 1440 1437 1435 1433 1431 1429 1427 1426 1425 1424 1424 1424 1425 1425 1426 1426 1427 1427 1428 1430 1432 1434 1435 1437 1439 1441 1443 1444 1446 1447 1449 1450 1452 1454 1456 1458 1461 1463
1449 1446 1443 1441 1438 1435 1432 1430 1428 1426 1423 1421 1420 1418 1418 1417 1417 1417 1418 1418 1419 1419 1420 1421 1423 1425 1427 1429 1431 1433 1435 1437 1439 1440 1442 1444 1445 1448 1449 1452 1454 1456 1459
1444 1441 1438 1435 1432 1430 1427 1424 1422 1420 1418 1415 1414 1412 1410 1410 1410 1410 1410 1411 1411 1412 1413 1414 1416 1418 1420 1422 1425 1427 1429 1431 1433 1435 1437 1439 1441 1444 1446 1448 1450 1453 1455
1438 1436 1433 1429 1426 1424 1421 1419 1416 1414 1411 1409 1407 1405 1403 1403 1402 1402 1402 1403 1403 1404 1405 1407 1409 1411 1413 1415 1418 1420 1422 1425 1427 1430 1432 1435 1437 1439 1442 1444 1447 1449 1451
1433 1430 1427 1424 1420 1417 1415 1413 1410 1408 1406 1403 1401 1398 1396 1394 1394 1395 1394 1395 1395 1396 1397 1399 1400 1402 1405 1407 1410 1413 1416 1419 1422 1424 1427 1429 1432 1435 1438 1440 1443 1445 1447
1427 1424 1420 1417 1414 1411 1407 1404 1402 1401 1398 1396 1394 1392 1389 1388 1387 1386 1386 1387 1388 1389 1390 1390 1392 1394 1397 1399 1402 1406 1409 1412 1415 1419 1422 1424 1427 1430 1433 1436 1438 1441 1443
1421 1417 1414 1411 1407 1404 1401 1398 1394 1391 1390 1388 1386 1384 1382 1380 1379 1378 1378 1378 1379 1381 1381 1382 1384 1387 1389 1392 1395 1398 1402 1406 1410 1413 1416 1419 1422 1425 1428 1431 1434 1436 1439
1415 1411 1408 1404 1401 1398 1395 1392 1388 1385 1381 1378 1378 1376 1375 1373 1372 1371 1371 1371 1371 1372 1373 1374 1376 1379 1382 1385 1388 1392 1395 1399 1403 1406 1410 1413 1417 1420 1423 1426 1429 1432 1435
1408 1404 1401 1398 1394 1391 1388 1385 1382 1379 1376 1372 1370 1369 1368 1366 1365 1364 1364 1364 1364 1364 1366 1367 1369 1372 1375 1378 1382 1385 1389 1392 1396 1400 1404 1407 1411 1414 1418 1421 1424 1427 1430
1401 1397 1394 1391 1388 1384 1381 1379 1376 1373 1370 1367 1365 1363 1361 1360 1358 1358 1357 1357 1358 1358 1359 1360 1362 1365 1368 1371 1375 1378 1382 1386 1390 1393 1397 1401 1405 1409 1412 1416 1419 1422 1425
1394 1390 1387 1384 1381 1378 1375 1372 1370 1367 1364 1362 1359 1358 1357 1355 1353 1352 1352 1351 1351 1352 1353 1354 1356 1359 1362 1365 1368 1372 1375 1379 1383 1387 1391 1395 1399 1403 1407 1410 1414 1417 1420
1388 1384 1381 1378 1375 1372 1369 1366 1364 1361 1359 1356 1354 1352 1351 1349 1348 1347 1346 1346 1346 1346 1347 1349 1351 1353 1355 1358 1362 1365 1369 1373 1377 1381 1385 1389 1393 1397 1401 1404 1408 1411 1414
1382 1379 1375 1372 1369 1366 1363 1360 1358 1355 1353 1350 1348 1347 1345 1344 1343 1342 1341 1341 1341 1341 1342 1344 1345 1347 1350 1352 1356 1359 1363 1366 1371 1375 1379 1383 1387 1391 1394 1398 1402 1405 1408
1377 1373 1370 1366 1363 1361 1358 1355 1353 1351 1348 1346 1344 1342 1340 1339 1338 1337 1336 1336 1336 1337 1337 1339 1340 1342 1344 1347 1350 1353 1357 1361 1365 1369 1373 1377 1381 1384 1388 1392 1395 1399 1402
1372 1368 1365 1362 1359 1356 1353 1350 1348 1346 1344 1341 1339 1337 1336 1335 1333 1333 1332 1332 1332 1332 1333 1334 1336 1337 1339 1342 1345 1348 1352 1356 1359 1363 1367 1371 1374 1378 1382 1385 1389 1392 1396
1367 1364 1360 1357 1354 1351 1349 1346 1344 1341 1339 1337 1335 1333 1332 1330 1329 1329 1328 1328 1328 1328 1329 1330 1332 1333 1335 1337 1340 1343 1347 1350 1354 1358 1362 1365 1369 1372 1376 1379 1383 1386 1389